Tracking 19636 objects as of 25-May-2019
HD Live streaming from Space Station
objects crossing your sky now

INTELSAT 802

Track INTELSAT 802 now!
INTELSAT 802 is classified as:


NORAD ID: 24846
Int'l Code: 1997-031A
Perigee: 36,297.4 km
Apogee: 36,525.4 km
Inclination: 6.3 °
Period: 1,467.8 minutes
Semi major axis: 42782 km
RCS: 6.3096 m2 (large)
Launch date: June 25, 1997
Source: International Telecommunications Satellite Organization (ITSO)
Launch site: FRENCH GUIANA (FRGUI)

64 C-band, 16 Ku-band; broadcasting, business services, direct-to-home TV broadcasting, telecommunications, VSAT networks; Pacific Ocean region.
aabbcc
Your satellite tracking list
Your tracking list is empty




NASA's NSSDC Master Catalog

Two Line Element Set (TLE):
1 24846U 97031A   19144.42526906 -.00000029  00000-0  00000+0 0  9998
2 24846   6.3188  59.2598 0026651 238.4015 331.5604  0.98108136 79603
Source of the keplerian elements: AFSPC